[[{"header":{"parameterUnit":"m.s-1","parameterCategory":1,"la1":30.2991,"la2":30.254,"lo1":-89.0895,"lo2":-89.0444,"dy":0.0017,"dx":0.0017,"nx":28,"ny":28,"refTime":"2023-09-26T09:00:00:Z","depth":0,"parameterNumber":2,"parameterNumberName":"U-component_of_WINDS"},"data":[0,0,0,0,0,0,0,0,0,0,0,0,0,0,0,0,0,0,0,0,0,0,0,0,0,0,0,0,0,0,0,0,0,0,0,0,0,0,0,0,0,0,0,0,0,0,0,0,0,0,0,0,0,0,0,0,0,0,-1.7965,-1.7965,0,-1.7996,-1.7997,-1.7997,-1.7952,-1.795,-1.7948,-1.7947,-1.7978,-1.798,-1.7982,0,0,0,0,0,0,0,0,0,0,0,0,0,-1.7865,-1.7867,-1.7965,-1.7965,-1.7965,-1.7996,-1.7997,-1.7997,-1.7952,-1.795,-1.7948,-1.7946,-1.7977,-1.798,-1.7983,0,0,0,0,0,0,0,0,0,0,0,0,0,-1.7904,-1.7868,-1.7965,-1.7947,-1.7945,-1.7996,-1.7997,-1.7997,-1.7952,-1.795,-1.7947,-1.7945,-1.7976,-1.7979,-1.7983,-1.8052,0,0,-1.7994,-1.7995,0,0,0,0,0,0,0,0,-1.7902,-1.7907,-1.7949,-1.7948,-1.7947,-1.7968,-1.7973,-1.8016,-1.7953,-1.795,-1.7947,-1.7944,-1.7976,-1.798,-1.7991,-1.8054,-1.8055,-1.7994,-1.7996,-1.7997,-1.7998,0,0,0,0,0,0,0,-1.7899,-1.7906,-1.7977,-1.795,-1.7948,-1.7937,-1.794,-1.7981,-1.7976,-1.795,-1.7946,-1.7951,-1.7975,-1.7987,-1.7991,-1.8055,-1.7994,-1.7997,-1.7999,-1.8,-1.818,-1.8183,0,0,0,0,0,0,-1.7899,-1.7904,-1.7976,-1.7978,-1.7918,-1.7941,-1.7944,-1.7963,-1.7975,-1.7975,-1.7953,-1.7949,-1.7983,-1.7987,-1.7992,-1.8076,-1.7997,-1.8001,-1.8003,-1.8177,-1.8181,-1.8184,0,0,0,0,0,0,-1.7897,-1.7906,-1.7975,-1.794,-1.7948,-1.7945,-1.7967,-1.7965,-1.7977,-1.7978,-1.7977,-1.7966,-1.7981,-1.7987,-1.8038,-1.8077,-1.8002,-1.8005,-1.8174,-1.8178,-1.8182,-1.8244,0,0,0,0,0,0,-1.7894,-1.7905,-1.7931,-1.7941,-1.795,-1.8021,-1.7969,-1.7967,-1.7984,-1.7978,-1.799,-1.799,-1.798,-1.8033,-1.8042,-1.808,-1.8008,-1.8171,-1.8176,-1.8181,-1.8239,-1.825,-1.826,0,0,0,0,0,-1.7891,-1.7947,-1.7933,-1.7942,-1.7983,-1.8023,-1.8028,-1.8016,-1.7987,-1.8014,-1.8014,-1.7989,-1.8071,-1.8039,-1.8048,-1.8088,-1.8168,-1.8175,-1.818,-1.8234,-1.8248,-1.8259,0,0,0,0,0,0,-1.794,-1.7947,-1.7932,-1.7993,-1.8008,-1.8015,-1.8048,-1.803,-1.8053,-1.8047,-1.803,-1.8033,-1.8089,-1.8093,-1.8058,-1.8157,-1.8115,-1.8123,-1.8153,-1.8166,-1.8176,-1.8174,-1.8011,0,0,0,0,0,-1.7958,-1.7991,-1.7995,-1.8048,-1.8057,-1.8052,-1.8068,-1.8058,-1.8072,-1.8078,-1.8082,-1.8097,-1.8126,-1.8146,-1.8172,-1.8239,-1.8242,-1.8271,-1.8281,-1.829,-1.8298,-1.8336,-1.835,-1.8204,-1.8203,-1.8203,0,0,-1.7996,-1.8004,-1.8025,-1.8058,-1.8069,-1.8103,-1.8057,-1.8094,-1.812,-1.8083,-1.8133,-1.8137,-1.8152,-1.8213,-1.8239,-1.8218,-1.8339,-1.8298,-1.8304,-1.8308,-1.8344,-1.8358,-1.837,-1.8208,-1.8207,-1.8206,0,0,-1.8082,-1.8091,-1.8137,-1.8149,-1.8166,-1.8162,-1.8174,-1.8185,-1.8186,-1.8236,-1.821,-1.824,-1.829,-1.8303,-1.8316,-1.841,-1.8389,-1.8419,-1.8474,-1.8512,-1.8523,-1.8533,-1.857,-1.8583,-1.8427,-1.8427,-1.8427,0,-1.8127,-1.8178,-1.8163,-1.8204,-1.8221,-1.819,-1.8238,-1.825,-1.8274,-1.8286,-1.8262,-1.8326,-1.8334,-1.8398,-1.8422,-1.8432,-1.8446,-1.8418,-1.8523,-1.8533,-1.8542,-1.8577,-1.859,-1.843,-1.843,-1.843,-1.8429,0,-1.8233,-1.8269,-1.8304,-1.8331,-1.8351,-1.8395,-1.8388,-1.841,-1.8398,-1.8397,-1.8449,-1.8458,-1.8488,-1.8501,-1.8489,-1.8565,-1.8552,-1.8525,-1.8483,-1.856,-1.8592,-1.8605,-1.8436,-1.8434,-1.8433,-1.8432,0,0,-1.8351,-1.8371,-1.8384,-1.8397,-1.8414,-1.8442,-1.8485,-1.8514,-1.8535,-1.8553,-1.859,-1.8634,-1.8611,-1.8626,-1.8615,-1.8647,-1.8725,-1.8617,-1.8618,-1.864,-1.8812,-1.8834,-1.8849,-1.8711,-1.8713,-1.8715,-1.8812,0,-1.844,-1.8516,-1.8505,-1.8578,-1.8612,-1.8585,-1.8623,-1.8638,-1.8639,-1.8668,-1.8668,-1.8701,-1.8666,-1.8676,-1.8707,-1.8709,-1.876,-1.8702,-1.8747,-1.8748,-1.8746,-1.8866,-1.8888,-1.8979,-1.8824,-1.8826,-1.8828,0,-1.8553,-1.8578,-1.8655,-1.8669,-1.8683,-1.8717,-1.8745,-1.8773,-1.879,-1.8789,-1.8807,-1.8791,-1.8835,-1.8791,-1.8852,-1.8813,-1.8831,-1.8835,-1.8838,-1.8844,-1.8794,-1.8877,-1.9008,-1.9023,-1.8847,-1.8845,-1.8844,0,-1.8636,-1.8687,-1.8741,-1.8752,-1.8769,-1.8795,-1.8803,-1.8818,-1.8837,-1.8861,-1.8874,-1.8902,-1.8918,-1.8941,-1.8934,-1.8901,-1.8998,-1.8952,-1.9,-1.9001,-1.9023,-1.9022,-1.9161,-1.903,-1.903,-1.903,-1.903,0,-1.8737,-1.8786,-1.8778,-1.8812,-1.8866,-1.8853,-1.8908,-1.8913,-1.8926,-1.8961,-1.8937,-1.897,-1.8957,-1.8989,-1.8983,-1.9037,-1.9043,-1.9045,-1.9043,-1.9048,-1.9049,-1.9061,-1.9056,-1.9034,-1.9033,-1.9032,-1.9031,0,-1.8839,-1.8835,-1.8893,-1.8905,-1.8909,-1.8949,-1.896,-1.8992,-1.8991,-1.9035,-1.9045,-1.9044,-1.9081,-1.9075,-1.9115,-1.9112,-1.918,-1.9169,-1.9175,-1.9173,-1.9222,-1.9219,-1.9376,-1.9398,-1.9251,-1.9252,-1.9253,0,-1.8905,-1.8942,-1.896,-1.8981,-1.8992,-1.9027,-1.9048,-1.9037,-1.9059,-1.9083,-1.9112,-1.9147,-1.9175,-1.9235,-1.9238,-1.927,-1.9261,-1.9314,-1.9266,-1.9271,-1.9266,-1.9265,-1.927,-1.9325,-1.9326,-1.9327,-1.9329,0,-1.9024,-1.9021,-1.9051,-1.9083,-1.9108,-1.9131,-1.9152,-1.9172,-1.9163,-1.9189,-1.9227,-1.9249,-1.9291,-1.9327,-1.9357,-1.9366,-1.9347,-1.9344,-1.9357,-1.9364,-1.9367,-1.9369,-1.9204,-1.9341,-1.9339,-1.9338,-1.9338,-1.9337,-1.9111,-1.9145,-1.9163,-1.9199,-1.9214,-1.9235,-1.9266,-1.927,-1.9302,-1.9337,-1.9328,-1.9372,-1.939,-1.9429,-1.9441,-1.9476,-1.9456,-1.9474,-1.948,-1.9485,-1.9493,-1.936,-1.948,-1.948,-1.948,-1.948,-1.9479,0,-1.9231,-1.9242,-1.9275,-1.9307,-1.9336,-1.9315,-1.9338,-1.9363,-1.9403,-1.9421,-1.945,-1.9495,-1.953,-1.9537,-1.9571,-1.9598,-1.959,-1.9607,-1.9606,-1.9609,-1.9506,-1.9493,-1.9613,-1.9613,-1.9613,-1.9613,-1.9613,-1.9613,-1.9298,-1.9354,-1.9354,-1.9418,-1.9428,-1.9472,-1.9487,-1.9507,-1.9522,-1.9574,-1.9604,-1.9608,-1.9623,-1.9658,-1.969,-1.9691,-1.9706,-1.9727,-1.9725,-1.9629,-1.9616,-1.9603,-1.9591,-1.973,-1.973,-1.9826,-1.9827,-1.9827]},{"header":{"parameterUnit":"m.s-1","parameterCategory":1,"la1":30.2991,"la2":30.254,"lo1":-89.0895,"lo2":-89.0444,"dy":0.0017,"dx":0.0017,"nx":28,"ny":28,"refTime":"2023-09-26T09:00:00:Z","depth":0,"parameterNumber":3,"parameterNumberName":"V-component_of_WINDS"},"data":[0,0,0,0,0,0,0,0,0,0,0,0,0,0,0,0,0,0,0,0,0,0,0,0,0,0,0,0,0,0,0,0,0,0,0,0,0,0,0,0,0,0,0,0,0,0,0,0,0,0,0,0,0,0,0,0,0,0,-1.4455,-1.4455,0,-1.4448,-1.4448,-1.4448,-1.4411,-1.4411,-1.441,-1.4409,-1.4403,-1.4404,-1.4405,0,0,0,0,0,0,0,0,0,0,0,0,0,-1.4436,-1.4436,-1.4455,-1.4455,-1.4455,-1.4448,-1.4448,-1.4448,-1.4412,-1.441,-1.4409,-1.4408,-1.4403,-1.4404,-1.4405,0,0,0,0,0,0,0,0,0,0,0,0,0,-1.4438,-1.4436,-1.4455,-1.4436,-1.4434,-1.4448,-1.4448,-1.4448,-1.4412,-1.441,-1.4409,-1.4408,-1.4403,-1.4404,-1.4405,-1.4438,0,0,-1.4408,-1.4408,0,0,0,0,0,0,0,0,-1.4438,-1.4439,-1.4438,-1.4437,-1.4435,-1.4429,-1.4439,-1.4445,-1.4412,-1.442,-1.4409,-1.4407,-1.4413,-1.4413,-1.4415,-1.4437,-1.4437,-1.4408,-1.4409,-1.4409,-1.4409,0,0,0,0,0,0,0,-1.4438,-1.4439,-1.4452,-1.4438,-1.4436,-1.4427,-1.4426,-1.444,-1.4424,-1.4419,-1.4417,-1.4416,-1.4412,-1.4414,-1.4414,-1.4437,-1.4408,-1.4409,-1.4409,-1.441,-1.4486,-1.4487,0,0,0,0,0,0,-1.444,-1.4439,-1.4452,-1.4452,-1.4433,-1.4429,-1.4428,-1.4432,-1.4424,-1.4421,-1.4418,-1.4415,-1.4413,-1.4413,-1.4414,-1.4452,-1.4409,-1.441,-1.441,-1.4484,-1.4486,-1.4488,0,0,0,0,0,0,-1.444,-1.4442,-1.4453,-1.4445,-1.4445,-1.443,-1.4436,-1.4433,-1.4435,-1.4422,-1.4419,-1.4423,-1.4412,-1.4413,-1.4432,-1.4451,-1.441,-1.4411,-1.4483,-1.4485,-1.4487,-1.4529,0,0,0,0,0,0,-1.444,-1.4442,-1.4454,-1.4445,-1.4446,-1.4471,-1.4438,-1.4434,-1.4437,-1.4433,-1.4427,-1.4424,-1.4411,-1.4431,-1.4433,-1.4452,-1.4412,-1.4481,-1.4484,-1.4486,-1.4525,-1.4532,-1.4537,0,0,0,0,0,-1.4439,-1.4467,-1.4455,-1.4457,-1.4461,-1.4472,-1.4472,-1.4456,-1.4439,-1.4451,-1.4443,-1.4424,-1.4449,-1.4433,-1.4435,-1.4455,-1.448,-1.4483,-1.4486,-1.4523,-1.4531,-1.4537,0,0,0,0,0,0,-1.4479,-1.4465,-1.4452,-1.4478,-1.4476,-1.4466,-1.4481,-1.4465,-1.4469,-1.4465,-1.4445,-1.4444,-1.4466,-1.4462,-1.4445,-1.4486,-1.4461,-1.4465,-1.4488,-1.4496,-1.4501,-1.4502,-1.4413,0,0,0,0,0,-1.4491,-1.45,-1.4488,-1.4511,-1.4511,-1.4496,-1.45,-1.4488,-1.4486,-1.4485,-1.4478,-1.4477,-1.4484,-1.4489,-1.4495,-1.4524,-1.4522,-1.4539,-1.4545,-1.455,-1.4554,-1.4569,-1.4576,-1.4498,-1.4498,-1.4498,0,0,-1.4515,-1.4509,-1.4516,-1.4519,-1.4517,-1.4527,-1.4496,-1.4509,-1.4516,-1.4487,-1.4505,-1.4499,-1.4497,-1.4521,-1.4531,-1.4518,-1.4575,-1.4554,-1.4558,-1.4559,-1.4573,-1.458,-1.4587,-1.45,-1.45,-1.4499,0,0,-1.4566,-1.4561,-1.4581,-1.4578,-1.4574,-1.4564,-1.4569,-1.456,-1.4556,-1.4573,-1.4551,-1.456,-1.4573,-1.4572,-1.4573,-1.4621,-1.4605,-1.4624,-1.4656,-1.4671,-1.4677,-1.4682,-1.47,-1.4707,-1.4627,-1.4627,-1.4628,0,-1.4597,-1.4612,-1.4593,-1.4607,-1.4609,-1.4581,-1.4601,-1.46,-1.4598,-1.46,-1.4585,-1.4601,-1.4597,-1.4621,-1.4633,-1.4634,-1.4639,-1.4625,-1.4677,-1.4682,-1.4687,-1.4704,-1.4711,-1.463,-1.463,-1.4629,-1.4629,0,-1.465,-1.4661,-1.4677,-1.4676,-1.4679,-1.4696,-1.468,-1.4685,-1.4672,-1.4663,-1.4681,-1.4676,-1.468,-1.4684,-1.4672,-1.4706,-1.4698,-1.4681,-1.4655,-1.4697,-1.4713,-1.4719,-1.4633,-1.4632,-1.4632,-1.4631,0,0,-1.4728,-1.4714,-1.4721,-1.472,-1.4713,-1.4721,-1.4736,-1.4739,-1.4745,-1.4744,-1.4757,-1.4768,-1.4752,-1.4753,-1.474,-1.4753,-1.4792,-1.4733,-1.4733,-1.4745,-1.483,-1.4845,-1.4852,-1.4781,-1.4782,-1.4783,-1.4831,0,-1.4776,-1.4802,-1.4784,-1.4812,-1.4822,-1.4796,-1.4809,-1.4806,-1.4798,-1.4805,-1.4796,-1.4804,-1.4781,-1.4782,-1.4794,-1.4785,-1.4809,-1.4781,-1.4793,-1.4794,-1.4796,-1.486,-1.4875,-1.4921,-1.4837,-1.4838,-1.4838,0,-1.4837,-1.4839,-1.4868,-1.4858,-1.4862,-1.4874,-1.4876,-1.4882,-1.4879,-1.4872,-1.4873,-1.4856,-1.487,-1.4844,-1.4864,-1.4845,-1.4849,-1.4845,-1.4846,-1.4848,-1.482,-1.4865,-1.4935,-1.4943,-1.4848,-1.4847,-1.4846,0,-1.4891,-1.4901,-1.4919,-1.4919,-1.4908,-1.4917,-1.4913,-1.4908,-1.4911,-1.4913,-1.4914,-1.4918,-1.492,-1.4923,-1.4907,-1.489,-1.4929,-1.4902,-1.4925,-1.4925,-1.4935,-1.4935,-1.5009,-1.4936,-1.4936,-1.4936,-1.4936,0,-1.4949,-1.4968,-1.4943,-1.4955,-1.4975,-1.4955,-1.4976,-1.4969,-1.4964,-1.4974,-1.4951,-1.4961,-1.4939,-1.4947,-1.4935,-1.4954,-1.4954,-1.495,-1.4947,-1.4952,-1.4953,-1.4955,-1.4952,-1.4937,-1.4937,-1.4937,-1.4936,0,-1.5013,-1.4998,-1.5016,-1.5004,-1.5001,-1.5017,-1.5007,-1.5017,-1.5006,-1.5019,-1.5021,-1.5005,-1.5013,-1.4998,-1.5003,-1.4995,-1.5022,-1.5013,-1.5023,-1.5021,-1.5045,-1.5043,-1.5124,-1.5133,-1.5053,-1.5054,-1.5054,0,-1.5052,-1.5066,-1.5054,-1.5059,-1.5056,-1.5064,-1.5067,-1.5047,-1.5051,-1.5047,-1.5058,-1.5063,-1.5067,-1.5081,-1.507,-1.5074,-1.5066,-1.5094,-1.5067,-1.5072,-1.5067,-1.5067,-1.5069,-1.51,-1.5101,-1.5102,-1.5102,0,-1.5121,-1.5112,-1.5117,-1.5119,-1.5123,-1.5124,-1.5123,-1.5128,-1.5106,-1.5112,-1.5119,-1.5122,-1.5127,-1.5134,-1.5135,-1.5131,-1.5114,-1.5111,-1.5116,-1.5123,-1.5129,-1.5127,-1.5039,-1.5109,-1.5109,-1.5108,-1.5108,-1.5107,-1.5175,-1.5186,-1.5179,-1.5185,-1.5182,-1.5182,-1.5191,-1.5181,-1.5186,-1.5189,-1.5176,-1.5187,-1.5182,-1.5182,-1.518,-1.5188,-1.5175,-1.5183,-1.5185,-1.5188,-1.5192,-1.5126,-1.5188,-1.5187,-1.5187,-1.5187,-1.5187,0,-1.5244,-1.5238,-1.5244,-1.5243,-1.5247,-1.5229,-1.5226,-1.5232,-1.5241,-1.5237,-1.5241,-1.5249,-1.5255,-1.5244,-1.5248,-1.5256,-1.5248,-1.5258,-1.5258,-1.5257,-1.5203,-1.5198,-1.5264,-1.5264,-1.5264,-1.5264,-1.5264,-1.5264,-1.5281,-1.5298,-1.5289,-1.5304,-1.5298,-1.5308,-1.5308,-1.5308,-1.5305,-1.5315,-1.5319,-1.5311,-1.5305,-1.5308,-1.5312,-1.5309,-1.5312,-1.5325,-1.5319,-1.5269,-1.5261,-1.5254,-1.5249,-1.5325,-1.5326,-1.5373,-1.5373,-1.5374]}]]